Location: Mason Neck State Park
(38.6428°N, 77.1981°W)
Time: 15:39:34
(UTC-04:00)

Daily predictions for brighter satellites

Satellite Brightness Start Highest point End
(mag) Time Altitude Azimuth Time Altitude Azimuth Time Altitude Azimuth
Cosmos 2360 Rocket 2.4 20:09:00 10° SSW 20:14:38 78° WNW 20:20:17 10° NNE
SJ 16-02 4.4 20:13:27 10° WSW 20:16:51 22° WNW 20:20:18 10° NNW
NOSS 2-1 (C) 3.4 20:13:58 10° S 20:17:24 42° ESE 20:21:01 10° NE
Cosmos 1805 Rocket 4.0 20:14:02 10° N 20:18:10 41° E 20:22:15 10° SSE
OE (NEXTSAT) 4.4 20:14:49 10° WSW 20:18:22 87° SSE 20:21:57 10° ENE
NOSS 2-1 (D) 3.4 20:14:55 10° SSW 20:18:23 45° ESE 20:22:01 10° NE
Resurs 01 Rocket 2.7 20:16:21 10° SE 20:20:04 27° ENE 20:23:47 10° NNE
Cosmos 2333 Rocket 3.1 20:16:08 10° SSE 20:20:46 27° ESE 20:25:24 10° NE
HJ-1C 3.4 20:19:33 10° SSE 20:22:53 90° S 20:26:15 10° NNW
GPS 2-05 Rocket1 4.1 20:20:09 10° WSW 20:23:07 28° SSW 20:26:04 10° SE
ATLAS 2AS CENTAUR R/B 4.0 20:17:15 10° NNW 20:24:12 32° NE 20:30:42 10° ESE
COSMOS 2428 2.9 20:20:18 10° S 20:25:50 52° ESE 20:31:23 10° NNE
CZ-2D R/B 3.2 20:22:11 10° SSE 20:25:57 71° ENE 20:29:45 10° N
H-2A R/B 3.1 20:23:06 10° W 20:26:49 17° SW 20:28:46 10° S
Cosmos 2333 4.2 20:23:37 10° S 20:29:09 58° ESE 20:34:40 10° NNE
FREGAT/IRIS 4.0 20:26:47 10° S 20:29:35 40° W 20:32:25 10° NNW
Cosmos 1844 Rocket 3.0 20:30:05 10° NNW 20:35:36 50° ENE 20:41:04 10° SE
Cosmos 1844 4.3 20:30:19 10° N 20:35:39 39° ENE 20:40:34 12° SE
Cosmos 2263 Rocket 4.0 20:32:20 10° NW 20:37:18 32° WSW 20:42:13 10° SSW
Cosmos 1455 3.2 20:34:23 10° SSE 20:37:37 26° E 20:40:52 10° NNE
Cosmos 2237 Rocket 3.2 20:38:27 10° SSE 20:42:43 23° E 20:47:01 10° NE
Cosmos 2219 Rocket 2.4 20:38:08 10° S 20:43:34 50° ESE 20:49:00 10° NNE
Cosmos 2074 Rocket 4.5 20:37:38 10° SSW 20:43:53 68° W 20:50:10 10° N
ERS-2 2.1 20:40:40 10° SSE 20:44:19 90° NNE 20:48:01 10° NNW
Cosmos 1892 3.2 20:40:48 10° N 20:44:30 40° E 20:47:46 12° SSE
BREEZE-M DEB (TANK) 4.0 20:43:25 10° NW 20:47:46 29° NNE 20:49:38 14° ENE
NOSS 2-1 (E) 3.1 20:45:04 10° SSW 20:48:41 89° NW 20:52:38 10° NNE
NOSS 0 Rocket 4.4 20:44:38 10° S 20:50:10 36° ESE 20:55:44 10° NE
Cosmos 1610 Rocket 4.5 20:44:08 10° S 20:50:15 90° SE 20:56:27 10° N
Cosmos 1408 4.4 20:48:17 10° NE 20:50:24 15° ENE 20:50:51 14° E
ATLAS CENTAUR R/B 1.8 20:47:43 10° S 20:50:57 30° ESE 20:54:16 10° NE
Cosmos 2278 Rocket 3.5 20:47:54 10° N 20:52:29 24° NE 20:55:31 16° E
USA 186 1.0 20:55:32 17° S 20:57:05 70° W 20:59:20 10° NNW
Timation 1 Rocket 4.4 20:51:15 10° NNW 20:57:11 64° ENE 21:01:56 16° SE
Resurs 1-3 3.5 20:54:00 10° SSE 20:58:21 72° ENE 21:02:44 10° N
Cosmos 1666 Rocket 3.5 20:54:04 10° N 20:58:33 73° E 21:02:59 10° SSE
H-2A R/B 3.6 20:58:30 15° E 21:00:08 17° ENE 21:03:20 10° NNE
NOSS 3-3 (A) 3.9 20:54:23 10° SSW 21:00:19 72° ESE 21:06:48 10° NE
NOSS 3-3 (C) 3.9 20:54:30 10° SSW 21:00:25 71° ESE 21:06:54 10° NE
OAO 2 Rocket 3.6 20:56:51 10° W 21:01:56 54° S 21:04:57 23° ESE
YAOGAN 6 2.8 21:01:56 10° S 21:05:29 72° W 21:09:07 10° NNW
Meteor 2-21 Rocket 4.4 20:59:54 10° S 21:06:00 80° E 21:12:11 10° N
ERS-1 Rocket 4.4 21:10:18 18° E 21:11:33 20° ENE 21:15:09 10° NNE
USA 267 3.9 21:06:40 10° ENE 21:12:18 31° SE 21:17:56 10° S
Sich 1 3.3 21:09:25 10° NNW 21:13:39 66° W 21:17:52 10° S
Cosmos 1340 4.0 21:10:56 10° SSW 21:14:32 42° WNW 21:18:09 10° N
Nadezhda 3 Rocket 4.1 21:08:40 10° N 21:14:59 83° W 21:21:20 10° S
Cosmos 1151 Rocket 3.2 21:13:26 24° SSE 21:15:39 46° E 21:19:45 10° NNE
Cosmos 220 Rocket 4.2 21:13:28 10° N 21:17:43 50° ENE 21:19:12 34° ESE
Cosmos 2251 Rocket 3.8 21:13:11 10° NNW 21:18:34 70° WSW 21:23:05 14° S
Cosmos 1939 Rocket 3.5 21:16:08 10° S 21:19:52 51° W 21:23:42 10° NNW
Cosmos 1825 2.8 21:24:55 10° N 21:28:24 38° ENE 21:28:24 38° ENE
Meteor 2-3 Rocket 3.7 21:24:54 10° N 21:30:31 86° W 21:34:38 19° S
SL-16 R/B 3.7 21:33:18 19° ENE 21:33:18 19° ENE 21:35:40 10° NE
Cosmos 2098 Rocket 3.7 21:31:01 38° ESE 21:31:24 39° E 21:35:18 10° NNE
Cosmos 1633 Rocket 3.7 21:28:12 10° NNW 21:32:27 55° W 21:35:51 15° SSW
Cosmos 2056 Rocket 4.2 21:32:53 33° E 21:32:53 33° E 21:37:35 10° NE
Cosmos 1869 3.7 21:34:42 42° ENE 21:34:42 42° ENE 21:38:11 10° NNE
Cosmos 2228 Rocket 2.9 21:32:02 21° S 21:34:56 84° E 21:39:21 10° N
SL-8 R/B 3.5 21:34:22 10° SW 21:39:07 72° SE 21:41:34 28° ENE
Cosmos 1515 Rocket 3.6 21:37:19 19° S 21:40:26 84° W 21:44:56 10° N
SL-24 R/B - RUBIN 2 4.4 21:36:37 10° NW 21:40:44 43° WSW 21:42:34 27° SSW
ARGOS 3.2 21:44:33 44° SE 21:46:03 61° ENE 21:51:20 10° N
Helios 1A 4.3 21:49:42 27° NE 21:49:42 27° NE 21:52:35 10° N
Cosmos 1624 Rocket 4.1 21:50:09 50° ESE 21:50:09 50° ESE 21:55:08 10° NNE
GEOS 3 Rocket 3.5 21:45:39 10° NE 21:50:58 65° ESE 21:56:10 10° SSW
BREEZE-M DEB (TANK) 4.0 21:49:12 10° NW 21:51:02 22° N 21:51:02 22° N
SL-08 RB Rocket 3.9 21:52:58 52° ENE 21:52:58 52° ENE 21:57:17 10° N
MetOp-B 4.1 21:51:53 50° SE 21:53:00 63° ENE 21:58:18 10° N
Resurs 01 Rocket 3.6 21:52:44 10° SSW 21:56:27 26° W 22:00:10 10° NW
Cosmos 1980 3.9 21:52:42 10° SSW 21:58:22 73° WNW 22:04:04 10° NNE
Cosmos 1727 Rocket 3.9 21:57:42 10° N 22:03:51 64° E 22:04:57 54° SE
Cosmos 1959 Rocket 4.5 22:00:08 21° S 22:04:24 81° W 22:10:34 10° N
Cosmos 2333 Rocket 3.5 21:59:29 10° SW 22:04:47 40° WNW 22:10:06 10° N
Meteor 2-10 Rocket 3.6 22:11:14 54° S 22:12:38 86° E 22:18:29 10° N
ATLAS 2AS CENTAUR R/B 3.1 22:08:03 10° NW 22:15:48 66° WSW 22:18:18 43° S
Cosmos 2218 Rocket 4.4 22:11:56 18° SSW 22:16:44 64° W 22:23:06 10° N
DMSP B5D2-2 4.5 22:13:58 10° NNE 22:18:05 49° NE 22:18:05 49° NE
Terra 3.5 22:21:54 23° NE 22:21:54 23° NE 22:24:26 10° NNE
ATLAS 2A CENTAUR R/B 4.3 22:12:19 10° SW 22:24:57 31° S 22:24:57 31° S
Cosmos 1408 4.4 22:22:21 10° NNW 22:25:16 28° W 22:25:16 28° W
Cosmos 2237 Rocket 3.1 22:21:02 10° SW 22:26:24 46° WNW 22:31:50 10° N
Cosmos 2219 Rocket 4.5 22:23:20 10° WSW 22:27:47 23° NW 22:32:13 10° N
SPOT 5 3.5 22:30:50 47° NNE 22:30:50 47° NNE 22:34:09 10° N
ATLAS CENTAUR R/B 3.8 22:27:14 10° W 22:29:57 19° NW 22:32:46 10° N
SPOT 1/Viking Rocket 3.8 22:31:21 58° NNE 22:31:21 58° NNE 22:35:49 10° N
Lacrosse 5 4.4 22:30:01 10° N 22:31:56 12° NNE 22:33:50 10° NE
USA 81 4.1 22:27:53 10° N 22:32:59 78° WNW 22:32:59 78° WNW
Cosmos 2278 Rocket 2.8 22:31:21 10° NW 22:36:47 47° WSW 22:37:23 46° SW
H-2A R/B 2.5 22:39:07 53° W 22:39:07 53° W 22:44:02 10° NNW
NOSS 3-4 (A) 3.8 22:39:03 10° NNW 22:46:09 71° NE 22:46:43 68° E
NOSS 3-4 (C) 3.8 22:39:09 10° NNW 22:46:15 70° NE 22:46:49 67° E
ATLAS 5 CENTAUR R/B 4.4 22:45:03 10° N 22:48:27 15° NE 22:49:40 15° NE
Cosmos 407 Rocket 4.0 22:43:56 10° NNW 22:48:01 56° NW 22:48:01 56° NW
ERS-1 Rocket 3.8 22:50:18 44° W 22:50:18 44° W 22:54:48 10° NNW
USA 267 3.4 22:49:05 10° NE 22:55:34 69° NW 23:02:03 10° WSW
Cosmos 2344 3.4 23:10:53 75° SW 23:11:40 88° NW 23:19:54 10° NNE
SL-16 R/B 3.1 23:15:05 45° WNW 23:15:05 45° WNW 23:20:30 10° N
USA 234 3.8 23:27:52 49° NNE 23:27:52 49° NNE 23:34:03 10° NW
Cosmos 1943 Rocket 4.0 23:29:18 10° N 23:32:07 23° NNE 23:32:07 23° NNE
